Temperature
18 18 18 17 17 17 17 17 17 17 17 17 17 17 17 17 17 17 16 16 16 16 16 16 16 16 16 16 16 16 16 16 16 16 16 16 16 16 15 15 15 15 15
18 18 17 17 17 17 17 17 17 17 17 17 17 17 17 16 16 16 16 16 16 16 16 16 16 16 16 16 16 16 16 16 16 16 15 15 15 15 15 15 14 14 14
18 18 17 17 17 17 17 17 17 17 17 17 16 16 16 16 16 16 16 16 16 16 16 16 16 16 15 15 15 15 15 15 15 15 15 14 14 14 14 14 14 13 13
18 17 17 17 17 17 17 17 17 17 16 16 16 16 16 16 16 16 16 16 16 15 15 15 15 15 15 15 15 15 15 15 15 14 14 14 14 13 13 13 13 13 12
18 17 17 17 17 17 17 16 16 16 16 16 16 16 16 16 16 16 15 15 15 15 15 14 14 14 14 14 14 14 14 14 14 14 13 13 13 13 13 12 12 12 11
17 17 17 17 17 16 16 16 16 16 16 15 15 15 15 15 15 15 15 15 15 14 14 14 14 14 14 13 13 13 13 13 13 13 13 12 12 12 11 11 11 11 11
17 17 17 16 16 16 16 16 16 15 15 15 15 15 15 15 15 14 14 14 14 14 14 14 13 13 13 13 12 12 12 12 12 12 11 11 11 10 10 10 10 10 10
17 16 16 16 16 16 15 15 15 15 15 15 15 14 14 14 14 14 14 13 13 13 13 13 12 12 12 12 12 11 11 11 11 10 11 10 10 10 10 9 9 9 8
16 16 16 16 16 15 15 15 15 15 14 14 14 14 14 13 13 13 13 13 13 12 12 12 12 11 11 11 11 11 10 10 10 10 9 9 9 9 9 9 8 8 8
16 16 16 15 15 15 15 15 14 14 14 14 14 13 13 13 12 12 12 12 12 12 11 11 11 10 10 10 10 10 9 9 9 8 8 8 8 8 8 8 7 7 7
16 16 15 15 15 15 14 14 14 14 13 13 13 12 12 12 12 11 11 11 11 11 11 10 10 10 9 9 9 9 8 8 8 8 8 7 7 7 7 7 7 6 6
15 15 15 14 14 14 14 13 13 13 13 12 12 11 11 11 11 11 11 10 10 10 10 9 9 9 8 8 8 8 8 8 7 7 7 7 6 6 6 6 6 6 5
15 14 14 14 14 13 13 13 12 12 12 12 11 11 10 10 10 10 10 10 9 9 9 8 8 8 8 8 7 7 7 7 7 7 6 6 6 6 5 5 5 5 5
14 14 13 13 13 12 12 12 12 11 11 11 11 10 10 9 9 9 9 9 8 8 8 8 7 7 7 7 7 7 6 6 6 6 6 5 5 5 5 5 5 5 5
14 13 13 12 12 12 11 11 11 11 11 11 10 10 10 9 9 8 8 8 8 8 7 7 7 7 7 6 6 6 6 6 5 5 5 5 5 5 4 4 4 4 4
13 12 12 12 11 11 11 10 10 10 10 9 9 9 9 8 8 8 8 7 7 7 7 7 7 6 6 6 6 5 5 5 5 5 4 4 4 4 4 4 4 4 3
12 12 11 11 11 10 10 10 9 9 9 9 8 8 8 8 7 7 7 7 7 7 7 6 6 6 6 6 5 5 5 5 4 4 4 4 4 4 4 3 3 3 3
11 11 11 10 10 10 9 9 9 9 8 8 7 7 7 7 7 7 7 7 7 6 6 6 6 6 5 5 5 5 4 4 4 4 4 4 4 3 3 3 3 3 3
11 10 10 10 9 9 9 9 8 8 8 8 7 7 7 7 7 7 7 7 6 6 6 6 6 5 5 5 4 4 4 4 4 4 4 3 3 3 3 3 3 3 3
10 10 9 9 9 9 8 8 8 8 8 7 7 7 7 7 6 6 6 6 6 6 6 5 5 5 5 5 4 4 4 4 4 4 3 3 3 3 3 3 3 3 3
9 9 9 9 9 8 8 8 8 8 7 7 7 7 7 7 6 6 6 6 6 6 5 5 5 5 5 4 4 4 4 4 4 3 3 3 3 3 3 2 2 2 2
9 9 9 9 9 8 8 8 8 8 7 7 7 7 7 6 6 6 6 6 6 5 5 5 5 5 4 4 4 4 4 4 3 3 3 3 3 3 2 2 2 2 2
9 9 9 8 8 8 8 8 8 8 7 7 7 7 6 6 6 6 6 6 5 5 5 5 5 4 4 4 4 4 4 3 3 3 3 3 3 2 2 2 2 2 2
9 9 9 9 8 8 8 8 8 8 7 7 7 7 7 6 6 6 6 6 5 5 5 5 4 4 4 4 4 4 4 3 3 3 3 3 2 2 2 2 2 2 2
9 9 9 9 8 8 8 8 8 8 7 7 7 7 7 6 6 6 6 6 5 5 5 5 4 4 4 4 4 4 3 3 3 3 3 2 2 2 2 2 2 2 2
9 9 9 8 8 8 8 8 8 8 7 7 7 7 7 6 6 6 6 6 5 5 5 5 4 4 4 4 4 3 3 3 3 3 3 2 2 2 2 2 2 2 2
Wind_Speed
7 7 6 6 6 6 5 6 5 5 5 5 6 5 5 5 5 4 4 4 4 3 2 3 3 2 2 1 2 2 2 3 3 1 1 3 4 4 5 6 6 5 5
7 6 6 5 5 5 4 4 5 5 4 5 4 5 5 5 4 5 5 4 4 4 3 3 2 2 2 1 2 2 1 2 3 2 1 3 3 3 3 4 5 5 5
7 6 6 5 5 4 3 3 4 4 4 4 4 4 4 3 4 4 4 4 4 3 3 3 3 4 3 2 2 2 2 3 3 4 2 2 3 3 3 4 5 5 6
7 6 6 6 5 5 4 4 4 4 4 4 4 4 3 3 3 4 5 6 6 5 4 3 3 3 3 3 3 3 3 5 5 5 3 3 3 2 3 3 4 4 4
8 7 6 6 6 5 5 5 5 5 5 4 4 4 4 3 3 6 7 7 7 7 6 5 5 7 8 5 4 3 4 5 5 4 3 3 3 3 3 2 2 2 3
8 7 6 7 7 6 6 6 6 6 6 6 5 6 5 4 7 9 8 8 7 7 6 6 7 8 11 12 12 10 8 6 5 4 4 4 3 3 3 3 2 2 2
8 7 7 7 8 7 7 7 7 6 7 7 6 7 7 7 10 10 10 8 7 6 5 6 6 7 9 9 12 14 13 12 9 6 6 4 3 1 2 3 3 3 1
8 7 7 8 8 8 8 7 7 6 7 7 6 7 7 8 10 11 12 9 8 7 6 6 7 6 7 8 9 9 8 7 7 6 6 4 4 2 2 2 2 2 3
8 7 7 8 9 9 9 8 7 7 8 7 6 7 8 7 9 11 11 8 8 7 7 6 7 7 8 10 9 9 8 7 11 13 12 11 10 9 7 4 4 4 3
7 8 7 8 9 9 9 8 7 8 8 8 8 7 7 7 9 11 11 8 8 7 6 7 9 8 9 10 8 8 8 5 5 7 8 9 9 9 9 5 3 3 2
8 8 8 8 9 9 9 8 9 9 9 9 9 8 7 7 8 9 9 7 7 7 6 6 6 11 11 11 9 6 6 5 5 6 5 5 5 5 6 7 4 3 2
9 9 8 8 8 9 10 9 8 9 10 9 9 8 6 6 7 8 9 8 8 8 7 5 6 10 11 11 8 9 10 8 5 5 5 4 4 3 3 6 7 5 3
10 9 9 9 8 8 9 9 7 7 8 7 7 7 6 5 7 10 11 11 11 8 7 9 9 10 10 8 10 10 8 6 5 5 4 2 2 2 4 5 8 9 9
11 10 9 10 9 8 6 6 7 6 7 7 7 7 6 5 5 5 5 8 10 9 7 8 10 10 8 8 7 6 5 5 5 4 3 2 3 3 4 3 3 3 4
10 10 9 9 10 9 8 6 6 5 6 8 6 7 7 6 3 6 6 5 5 5 6 5 5 5 6 6 5 6 5 5 5 4 4 4 4 4 3 3 3 3 3
10 9 8 8 8 9 9 9 14 11 13 12 10 9 6 8 10 11 11 10 10 9 8 6 5 5 5 5 5 4 4 4 4 4 4 4 3 3 3 3 3 3 2
11 10 9 9 9 9 8 10 9 10 14 14 13 12 10 11 11 11 11 11 10 10 7 5 5 5 5 4 4 4 3 3 3 4 3 3 2 3 3 3 3 3 2
11 11 10 8 8 8 8 8 8 9 8 6 7 10 10 10 10 10 11 10 7 6 5 5 5 4 4 4 4 3 3 3 3 3 3 3 3 2 2 3 2 2 2
10 8 8 8 8 8 8 7 7 8 8 7 5 5 6 8 9 9 9 6 5 4 4 4 4 4 4 4 3 3 3 3 3 3 3 3 2 2 2 2 3 3 2
9 13 11 9 9 8 7 7 7 7 7 6 5 4 3 4 4 4 4 4 4 4 4 4 4 4 4 4 4 3 3 3 3 2 2 2 2 2 2 3 2 2 2
8 10 13 10 8 7 7 7 7 7 6 5 4 3 5 4 3 3 3 3 4 4 4 4 4 4 4 3 4 4 4 2 1 1 1 2 2 2 2 2 2 2 3
7 8 7 7 7 6 6 6 6 6 6 5 3 2 5 4 3 3 3 3 3 4 6 5 4 4 5 5 4 4 3 2 1 0 1 1 2 2 2 2 3 3 3
7 8 7 6 6 8 7 6 6 6 5 5 5 4 4 4 4 3 4 3 4 5 8 8 6 5 6 8 8 8 4 3 3 2 1 0 1 2 2 2 4 4 4
6 7 7 7 6 6 6 6 6 6 6 6 5 5 5 5 4 4 4 4 5 6 8 9 9 8 8 8 8 8 7 6 5 4 3 1 1 2 3 3 4 5 5
5 5 6 6 6 6 6 6 6 6 6 6 6 5 5 5 4 4 4 5 7 7 8 9 9 9 9 10 10 9 8 6 5 4 2 2 2 3 3 4 4 5 5
5 5 5 5 5 6 6 6 6 6 6 6 6 5 5 5 5 5 5 5 6 6 7 9 10 10 11 11 11 10 8 7 6 4 3 2 2 3 4 4 5 5 6
Wind_Direction
175 173 170 173 176 175 185 195 190 183 176 174 180 179 178 179 177 172 181 178 179 189 188 174 184 164 140 121 102 107 122 135 156 230 7 20 40 50 56 70 76 80 80
166 161 163 164 163 166 175 185 178 174 169 170 168 171 178 176 175 176 184 178 171 170 177 163 170 148 123 109 100 101 120 134 145 148 38 25 37 47 61 63 60 67 73
153 152 153 153 157 161 160 150 145 151 151 154 151 157 162 163 167 173 162 148 141 141 150 146 146 129 118 97 95 89 85 91 104 119 93 37 36 42 51 49 50 46 65
146 148 152 155 153 149 142 132 127 133 130 129 132 143 144 145 147 143 131 122 113 99 90 97 104 117 124 115 97 91 96 91 93 101 89 50 34 19 49 46 41 31 36
144 146 151 149 141 132 127 122 115 114 114 108 108 109 110 115 123 127 126 121 116 105 90 84 85 91 89 94 100 101 105 105 101 97 87 68 43 35 23 8 42 36 32
144 146 143 137 131 125 121 112 106 102 99 97 96 96 92 100 103 112 122 119 116 114 107 95 87 81 84 81 80 80 89 107 114 106 95 92 73 48 30 41 47 48 21
138 137 135 131 125 120 116 107 105 102 95 90 88 92 93 94 101 108 113 115 110 108 109 106 97 88 85 85 77 72 67 71 86 109 103 99 94 60 67 54 53 66 35
134 134 135 131 125 120 115 112 106 102 99 96 91 94 96 93 99 103 104 99 93 88 92 101 103 94 91 96 90 78 68 58 68 84 103 99 97 90 85 98 101 75 33
130 134 134 131 128 123 120 117 113 107 101 97 95 95 96 91 94 103 107 102 96 84 79 83 96 96 95 100 97 91 77 61 67 80 87 85 78 71 72 72 60 69 40
136 134 130 128 126 123 120 116 110 107 104 99 88 83 92 95 95 102 110 110 105 96 82 75 78 89 89 93 97 98 91 75 77 74 65 62 57 52 54 70 99 96 87
124 120 119 120 122 121 115 113 112 109 104 99 92 80 77 84 89 97 109 115 118 110 98 85 75 81 84 84 88 92 100 102 91 85 73 53 42 37 34 41 60 109 107
119 116 115 117 120 117 115 112 112 113 108 105 100 89 71 66 79 97 103 104 110 108 104 97 89 85 80 79 80 82 85 86 82 76 67 51 42 29 18 30 42 52 78
115 112 110 106 105 111 117 119 116 113 115 113 110 105 89 74 75 85 94 98 99 98 103 105 96 86 76 70 72 75 76 79 81 78 70 46 14 11 27 28 29 38 37
117 114 113 111 105 97 98 109 117 119 121 122 121 116 108 92 83 81 88 93 90 90 92 86 80 74 70 66 63 58 58 72 86 84 70 36 26 33 33 31 35 28 32
118 117 114 111 109 98 85 72 94 97 127 132 131 128 128 119 112 114 113 105 106 107 100 81 71 70 67 64 60 57 54 55 60 57 61 53 40 35 24 22 42 47 43
124 122 119 117 113 111 106 84 60 78 90 95 103 111 100 110 115 105 99 100 102 104 93 89 86 85 87 87 83 68 57 56 57 65 61 56 48 41 27 20 34 41 22
130 129 125 123 122 122 121 118 105 74 71 81 94 101 109 114 108 102 99 98 97 99 90 93 97 101 101 98 95 90 72 57 67 68 61 47 42 39 37 24 18 18 3
122 124 125 124 125 125 124 123 123 123 113 86 73 91 102 104 102 101 101 93 81 77 94 107 111 110 106 102 102 101 87 67 61 58 50 39 36 38 30 13 7 5 346
123 125 124 123 122 122 121 120 118 119 119 115 102 83 89 94 90 94 99 96 109 103 102 110 115 115 111 108 107 103 96 88 74 62 45 33 27 35 22 1 354 356 -0
123 127 127 127 127 126 125 125 124 122 122 123 125 125 108 92 89 87 90 102 110 119 124 125 123 121 120 116 112 108 96 86 72 60 37 18 12 26 14 353 349 344 328
125 131 129 126 128 132 133 133 134 134 135 136 143 150 140 124 126 125 122 125 136 142 142 134 129 129 127 123 121 121 116 106 92 71 36 8 5 1 344 337 331 329 324
125 128 130 130 131 133 136 139 141 142 146 146 150 147 146 127 127 132 144 152 153 152 150 142 142 148 152 147 144 139 135 137 139 107 23 357 352 342 339 339 332 324 322
129 131 131 133 134 139 139 142 147 151 153 156 155 149 145 148 150 151 154 153 148 147 149 146 145 149 155 159 160 158 158 178 195 192 173 328 339 331 323 315 314 316 314
136 139 140 141 142 147 150 152 156 159 158 158 159 161 164 165 165 167 165 161 156 156 157 159 161 163 165 166 170 171 176 184 191 193 194 207 274 302 307 307 305 303 302
132 139 141 145 148 151 154 158 162 165 164 164 166 168 170 170 173 176 172 167 162 165 170 173 175 179 179 178 180 184 190 197 203 212 221 233 273 288 299 300 300 302 301
141 145 145 146 149 152 155 159 164 165 167 170 171 173 175 176 177 175 174 172 172 177 181 185 188 190 189 189 192 195 200 205 211 221 232 251 275 289 301 297 301 302 304
Height
1518 1520 1521 1524 1527 1529 1531 1533 1535 1537 1539 1541 1543 1544 1546 1547 1548 1550 1551 1552 1554 1555 1556 1557 1558 1559 1560 1561 1562 1562 1563 1564 1564 1564 1564 1564 1564 1564 1564 1564 1564 1564 1564
1517 1519 1521 1523 1525 1527 1529 1531 1533 1535 1537 1538 1540 1541 1543 1544 1545 1546 1548 1549 1551 1552 1553 1554 1555 1556 1557 1558 1558 1559 1560 1560 1561 1561 1561 1562 1562 1562 1562 1562 1561 1561 1561
1517 1519 1521 1522 1524 1526 1527 1529 1531 1533 1534 1536 1537 1539 1540 1541 1542 1544 1545 1546 1547 1549 1550 1551 1552 1552 1553 1554 1555 1556 1557 1557 1558 1558 1558 1559 1559 1559 1559 1559 1559 1559 1558
1517 1518 1520 1521 1523 1525 1526 1528 1529 1530 1532 1534 1535 1536 1537 1539 1540 1541 1542 1542 1544 1545 1546 1548 1549 1549 1550 1551 1552 1553 1554 1555 1555 1556 1556 1556 1556 1556 1557 1556 1556 1556 1556
1516 1518 1519 1521 1522 1524 1525 1526 1528 1529 1530 1531 1533 1534 1535 1536 1537 1538 1539 1540 1541 1543 1544 1545 1546 1547 1547 1548 1549 1550 1551 1552 1553 1553 1553 1554 1554 1554 1554 1554 1554 1554 1553
1516 1517 1519 1520 1521 1523 1524 1525 1526 1528 1529 1530 1531 1532 1533 1534 1535 1536 1537 1538 1539 1541 1541 1542 1543 1544 1545 1546 1547 1548 1549 1550 1550 1551 1551 1551 1551 1552 1552 1552 1552 1552 1552
1515 1517 1518 1519 1521 1522 1523 1525 1525 1526 1528 1529 1530 1531 1531 1533 1534 1535 1536 1537 1538 1539 1540 1541 1541 1542 1544 1544 1545 1546 1547 1548 1549 1549 1549 1549 1550 1550 1551 1550 1550 1550 1550
1514 1516 1517 1519 1520 1521 1522 1523 1524 1526 1527 1528 1528 1529 1530 1532 1533 1534 1535 1536 1537 1538 1539 1540 1541 1542 1543 1544 1545 1545 1546 1546 1547 1547 1548 1548 1549 1549 1549 1549 1549 1549 1548
1513 1515 1516 1518 1519 1520 1521 1522 1524 1525 1526 1527 1528 1529 1529 1531 1532 1533 1534 1535 1536 1537 1538 1539 1540 1541 1543 1544 1544 1544 1545 1545 1546 1547 1547 1548 1548 1548 1548 1548 1547 1547 1546
1512 1514 1516 1517 1518 1519 1520 1522 1523 1524 1525 1526 1527 1528 1529 1530 1532 1533 1534 1535 1535 1537 1538 1539 1540 1541 1543 1544 1544 1545 1545 1546 1547 1547 1547 1547 1548 1548 1547 1547 1546 1546 1545
1511 1513 1515 1516 1517 1519 1520 1521 1522 1524 1525 1526 1527 1528 1529 1531 1532 1533 1535 1535 1536 1537 1538 1540 1541 1542 1543 1544 1545 1546 1546 1547 1547 1548 1548 1548 1548 1548 1547 1547 1547 1546 1545
1511 1512 1514 1515 1516 1518 1519 1520 1522 1523 1524 1526 1527 1528 1530 1531 1533 1534 1535 1536 1537 1538 1539 1540 1542 1543 1544 1545 1546 1547 1547 1548 1548 1549 1549 1549 1549 1549 1548 1548 1547 1547 1546
1510 1512 1513 1514 1515 1517 1519 1520 1521 1523 1524 1525 1527 1528 1530 1532 1534 1535 1536 1537 1538 1539 1540 1542 1543 1545 1546 1547 1548 1548 1549 1549 1550 1550 1550 1550 1550 1550 1549 1549 1548 1547 1546
1509 1511 1513 1514 1515 1517 1519 1520 1522 1523 1524 1526 1527 1529 1530 1532 1534 1536 1537 1538 1539 1541 1542 1544 1545 1547 1548 1548 1549 1550 1550 1551 1551 1551 1551 1551 1551 1551 1550 1549 1548 1547 1546
1508 1510 1512 1513 1515 1517 1518 1520 1522 1524 1526 1527 1528 1530 1531 1533 1535 1537 1539 1540 1541 1543 1545 1546 1547 1549 1549 1550 1551 1551 1552 1552 1552 1552 1552 1552 1552 1551 1550 1550 1548 1547 1546
1508 1509 1511 1513 1515 1517 1518 1521 1523 1526 1528 1529 1531 1532 1534 1536 1537 1539 1541 1542 1544 1545 1547 1548 1549 1550 1551 1552 1552 1553 1553 1553 1553 1553 1552 1552 1552 1551 1551 1550 1548 1547 1546
1507 1509 1511 1513 1515 1517 1520 1521 1523 1527 1529 1531 1533 1534 1536 1537 1539 1541 1543 1545 1546 1548 1548 1550 1551 1552 1553 1553 1553 1554 1554 1554 1554 1554 1553 1553 1552 1551 1550 1549 1548 1547 1545
1508 1510 1512 1514 1516 1519 1521 1523 1525 1527 1529 1532 1535 1537 1538 1540 1542 1543 1545 1547 1548 1550 1550 1551 1553 1553 1554 1554 1554 1554 1555 1555 1554 1554 1553 1553 1552 1551 1550 1549 1547 1546 1545
1509 1511 1513 1516 1518 1521 1523 1525 1527 1529 1531 1533 1536 1539 1541 1543 1545 1546 1548 1549 1550 1551 1552 1553 1554 1555 1555 1555 1555 1555 1555 1555 1554 1554 1553 1552 1551 1550 1549 1548 1547 1546 1544
1510 1513 1515 1518 1520 1523 1526 1528 1529 1532 1534 1536 1539 1541 1543 1545 1547 1548 1549 1551 1552 1553 1554 1554 1555 1555 1556 1556 1555 1555 1555 1554 1554 1553 1552 1551 1551 1550 1549 1547 1546 1545 1543
1512 1515 1518 1520 1523 1526 1528 1530 1532 1534 1536 1539 1541 1543 1545 1547 1548 1549 1551 1552 1553 1554 1555 1555 1556 1556 1556 1555 1555 1555 1554 1554 1553 1552 1551 1550 1550 1549 1548 1546 1545 1543 1542
1515 1517 1520 1523 1526 1528 1530 1533 1535 1537 1539 1541 1543 1545 1547 1548 1550 1551 1552 1553 1554 1555 1555 1556 1556 1556 1555 1555 1555 1554 1554 1553 1552 1551 1550 1549 1548 1548 1546 1545 1544 1542 1540
1519 1521 1523 1526 1528 1531 1533 1535 1537 1539 1541 1543 1544 1546 1548 1549 1550 1552 1553 1554 1554 1555 1555 1556 1555 1555 1555 1554 1554 1553 1552 1552 1551 1550 1549 1548 1547 1546 1545 1543 1542 1540 1538
1522 1524 1526 1528 1530 1532 1534 1536 1538 1540 1542 1544 1545 1547 1548 1550 1551 1552 1553 1554 1554 1555 1555 1555 1555 1554 1554 1553 1553 1552 1551 1550 1550 1549 1548 1547 1546 1545 1543 1542 1540 1538 1536
1524 1526 1528 1530 1532 1533 1535 1537 1539 1541 1543 1545 1546 1548 1549 1550 1551 1552 1553 1553 1554 1554 1554 1554 1554 1553 1553 1552 1552 1551 1550 1549 1548 1547 1546 1545 1544 1543 1541 1540 1538 1536 1534
1526 1528 1530 1531 1533 1535 1537 1538 1540 1542 1543 1545 1546 1548 1549 1550 1551 1551 1552 1552 1553 1553 1553 1553 1553 1552 1552 1551 1550 1550 1549 1547 1546 1545 1544 1543 1542 1540 1539 1537 1535 1533 1531